Showing default

FLOCK 4G 28, 62634

Orbit data source: Space-Track

FLOCK 4G 28, 62634 is a payload satellite owned by Planet (US) in SSO that was launched on Tue, 14 Jan 2025 UTC via an FALCON 9 launch vehicle from the Air Force Western Test Range (AFWTR). Payload-class satellites include a variety of spacecraft equipped with specific instruments for various scientific and technological missions. These include communications satellites like Starlink; space stations such as the ISS; scientific satellites like the Hubble; Earth observation satellites from companies like Planet Labs, Umbra, and HawkEye 360; GPS; miniature CubeSats for education and research; and military/defense satellites.

Loading next visibility...
Identifier
62634, 2025-009AB
Orbit
SSO
Country
Flag of USUS
Related business
Manufacturer
Planet
Mission
Operational Commercial Imaging
Bus & Motor
CUBESAT 3U, Unknown motor
Mass
5.7 kg wet, 5.7 kg dry
Launch date (UTC)
2025-01-14 (8 months ago)
Launch vehicle
FALCON 9
Launch site
Air Force Western Test Range (AFWTR)
Object type
Payload
Rocket body
Debris
Shape & HBR
Box + 2 Pan, 0.1 m
Radar Cross Section
0.035 m², Medium (>0.1 m² and < 1m²)

Expand to show TLE details & history
Last TLE update: 1 day ago

TLE from 1 day ago
0 FLOCK 4G 28
1 62634U 25009AB  25260.81008762  .00034107  00000-0  13361-2 0  9995
2 62634  97.4262 340.2029 0005547 179.8331 180.2910 15.25697068 37387
Epoch: 2025-09-17T19:26Z
TLE epoch observation values (Epoch: 2025-09-17T19:26:31.57Z)
Latitude
-0.00001°
Longitude
51.59066°
Altitude
495.6 km
Speed
7.615 km/s
True Right ascension
22h 40m 48s
True Declination
0° 00' 00"
Sunlit
Object was in full shadow at epoch
Visualization orbit readout
Latitude
Unknown
Longitude
Unknown
Altitude
Unknown
Speed
Unknown
Apparent Right ascension
Unknown
Apparent Declination
Unknown
Sunlit
N/A
Visualization observer readout
Local Sidereal Time
16:26:03
Azimuth
Unknown
Elevation
Unknown
Doppler factor
Unknown
Orbital elements
Apogee altitude
489.46 km
Perigee altitude
481.845 km
Semi-major axis
6,863.789 km
Eccentricity
0.00055
Inclination
97.4262°
RAAN
340.2029°
Arg. of periapsis
179.8331°
True anomaly
180.29068°
Mean anomaly
180.291°
Eccentric anomaly
180.29084°
Mean motion
3.81678 °/min
Orbital period
94.32 mins
BSTAR
0.0013361
Loading maneuver chart data...
Computing Atmospheric mass density...
Loading historical data...
Loading historical data...
Loading historical data...
Loading historical data...
Loading historical data...
Loading historical data...
Loading historical data...

Documentation

Showing up to 5 results
|